CW5306 Weather Reports


time (UTC)temp
C
wind
direction
speed
KPH
gust
KPH
rain 1hr
cm
rain 24hr
cm
rain mn
cm
humidity
%
barometer
mb
20260901143859 25 90 9.7 22.5 0.00 0.00 0.00 78 1015.8
20260901143359 25 86 12.9 22.5 0.00 0.00 0.00 78 1015.6
20260901142859 25 76 6.4 24.1 0.00 0.00 0.00 79 1015.8
20260901142400 25 99 9.7 24.1 0.00 0.00 0.00 78 1015.8
20260901141901 25 58 11.3 22.5 0.00 0.00 0.00 79 1015.7
20260901141400 25 84 9.7 22.5 0.00 0.00 0.00 78 1015.7
20260901140855 25 72 11.3 22.5 0.00 0.00 0.00 78 1015.8
20260901140347 25 114 6.4 16.1 0.00 0.00 0.00 78 1015.8
20260901135847 25 67 6.4 16.1 0.00 0.00 0.00 78 1015.4
20260901135353 25 102 9.7 22.5 0.00 0.00 0.00 76 1015.8
20260901135347 25 55 8.0 22.5 0.00 0.00 0.00 77 1015.7
20260901134347 25 91 9.7 22.5 0.00 0.00 0.00 76 1015.5
20260901133848 25 60 12.9 22.5 0.00 0.00 0.00 76 1015.5
20260901133342 25 97 9.7 20.9 0.00 0.00 0.00 75 1015.6
20260901132835 25 95 6.4 22.5 0.00 0.00 0.00 75 1015.6
20260901132335 25 108 11.3 22.5 0.00 0.00 0.00 75 1016.1
20260901131836 25 70 9.7 22.5 0.00 0.00 0.00 75 1015.8
20260901131606 25 93 9.7 22.5 0.00 0.00 0.00 76 1015.7
20260901130836 25 121 6.4 24.1 0.00 0.00 0.00 77 1015.7
20260901130335 25 72 9.7 24.1 0.00 0.00 0.00 77 1015.7
20260901125823 25 83 9.7 24.1 0.00 0.00 0.00 77 1015.7
20260901125324 25 119 9.7 20.9 0.00 0.00 0.00 78 1015.4
20260901125054 25 85 6.4 24.1 0.00 0.00 0.00 78 1015.7
20260901124323 25 71 6.4 25.7 0.00 0.00 0.00 77 1015.6
20260901124055 25 86 6.4 25.7 0.00 0.00 0.00 78 1015.8
20260901123324 25 68 14.5 25.7 0.00 0.00 0.00 79 1015.8
20260901123056 25 76 6.4 25.7 0.00 0.00 0.00 78 1016.1
20260901122323 25 99 11.3 24.1 0.00 0.00 0.00 78 1016.1
20260901121823 25 90 6.4 24.1 0.00 0.00 0.00 78 1016.0
20260901121325 25 66 9.7 27.4 0.00 0.00 0.00 78 1016.1
20260901121054 25 87 17.7 27.4 0.00 0.00 0.00 77 1016.1
20260901120324 25 102 12.9 25.7 0.00 0.00 0.00 77 1016.0
20260901120055 25 110 6.4 25.7 0.00 0.00 0.00 77 1016.3
20260901115325 25 91 9.7 22.5 0.00 0.00 0.00 77 1016.1
20260901114824 25 106 9.7 24.1 0.00 0.00 0.00 78 1016.2
20260901114325 25 126 6.4 25.7 0.00 0.00 0.00 78 1016.2
20260901113824 25 99 8.0 25.7 0.00 0.00 0.00 77 1016.3
20260901113556 25 78 17.7 25.7 0.00 0.00 0.00 77 1016.3
20260901112825 25 104 12.9 25.7 0.00 0.00 0.00 77 1016.0
20260901112325 25 94 4.8 32.2 0.00 0.00 0.00 76 1016.4
20260901112055 25 88 11.3 32.2 0.00 0.00 0.00 76 1016.4
20260901111600 25 85 6.4 27.4 0.00 0.00 0.00 79 1016.4
20260901111324 25 80 14.5 24.1 0.00 0.00 0.00 77 1016.5
20260901110323 25 87 11.3 27.4 0.00 0.00 0.00 78 1016.4
20260901105823 25 107 9.7 27.4 0.00 0.00 0.00 78 1016.6
20260901105325 25 92 17.7 32.2 0.00 0.00 0.00 77 1016.8
20260901104824 25 82 14.5 25.7 0.00 0.00 0.00 79 1016.5
20260901104323 25 68 8.0 25.7 0.00 0.00 0.00 79 1016.5
20260901103823 25 111 11.3 25.7 0.00 0.00 0.00 79 1016.8
20260901103323 25 92 8.0 27.4 0.00 0.00 0.00 78 1016.5
20260901103042 25 80 17.7 27.4 0.00 0.00 0.00 78 1016.5
20260901102311 25 114 8.0 25.7 0.00 0.00 0.00 77 1016.8
20260901101812 25 99 8.0 25.7 0.00 0.00 0.00 77 1016.7
20260901101312 25 119 12.9 25.7 0.00 0.03 0.00 76 1016.6
20260901100812 25 101 17.7 25.7 0.00 0.03 0.00 77 1016.7
20260901100313 25 69 17.7 30.6 0.00 0.05 0.00 77 1016.7
20260901095812 25 121 14.5 30.6 0.00 0.05 0.05 76 1016.9
20260901095312 25 68 12.9 25.7 0.00 0.05 0.05 77 1016.9
20260901094812 25 103 12.9 27.4 0.00 0.05 0.05 77 1016.8
20260901094311 25 95 9.7 32.2 0.00 0.05 0.05 78 1016.9
20260901093812 25 76 14.5 37.0 0.00 0.05 0.05 77 1017.0
20260901093311 25 124 8.0 37.0 0.00 0.05 0.05 77 1017.1
20260901092801 25 83 12.9 33.8 0.00 0.05 0.05 78 1017.1
20260901092301 25 81 20.9 33.8 0.00 0.05 0.05 77 1017.2
20260901092019 25 107 12.9 27.4 0.00 0.05 0.05 77 1017.2
20260901091248 25 125 8.0 30.6 0.00 0.05 0.05 78 1017.3
20260901090753 25 93 14.5 33.8 0.00 0.05 0.05 76 1017.0
20260901090748 25 90 16.1 30.6 0.00 0.05 0.05 77 1017.4
20260901085748 25 122 8.0 33.8 0.00 0.13 0.05 77 1017.1
20260901085518 25 90 16.1 32.2 0.00 0.13 0.05 77 1017.4
20260901084748 25 101 12.9 32.2 0.00 0.13 0.05 76 1017.3
20260901084248 25 105 17.7 30.6 0.00 0.13 0.05 75 1017.3
20260901083748 25 58 20.9 32.2 0.00 0.13 0.05 76 1017.1
20260901083248 25 89 11.3 32.2 0.00 0.13 0.05 77 1017.2
20260901082747 25 77 14.5 30.6 0.00 0.13 0.05 77 1017.3
20260901082248 25 110 14.5 32.2 0.00 0.13 0.05 76 1017.7
20260901081737 25 125 19.3 32.2 0.00 0.13 0.05 75 1017.5
20260901081236 25 59 17.7 32.2 0.00 0.13 0.05 75 1017.5
20260901080734 25 86 16.1 30.6 0.00 0.13 0.05 75 1017.6
20260901080506 25 64 14.5 38.6 0.00 0.13 0.05 77 1017.4
20260901075734 25 49 19.3 38.6 0.00 0.13 0.05 78 1017.4
20260901075231 25 68 22.5 32.2 0.00 0.13 0.05 78 1017.4
20260901074730 25 69 11.3 37.0 0.00 0.13 0.05 78 1017.4
20260901074231 25 99 19.3 37.0 0.00 0.15 0.05 77 1017.3
20260901073729 25 89 25.7 37.0 0.00 0.28 0.05 77 1017.4
20260901073229 25 78 20.9 37.0 0.00 0.28 0.05 78 1017.1
20260901072730 25 91 12.9 32.2 0.00 0.33 0.05 78 1017.3
20260901072456 25 102 14.5 32.2 0.00 0.36 0.05 78 1017.2
20260901071725 25 90 12.9 33.8 0.00 0.36 0.05 77 1017.2
20260901071227 26 103 16.1 33.8 0.00 0.36 0.05 78 1017.0
20260901070727 25 76 27.4 33.8 0.00 0.36 0.05 78 1017.0
20260901070224 26 66 22.5 33.8 0.00 0.36 0.05 78 1017.1
20260901065722 26 66 19.3 30.6 0.00 0.36 0.05 78 1017.0
20260901065223 25 71 17.7 30.6 0.00 0.36 0.05 77 1016.9
20260901064722 25 92 9.7 30.6 0.00 0.36 0.05 76 1016.9
20260901064222 25 117 14.5 30.6 0.00 0.36 0.05 75 1016.7
20260901063953 25 84 8.0 27.4 0.00 0.36 0.05 76 1016.8
20260901063221 25 111 14.5 27.4 0.00 0.36 0.05 77 1016.6
20260901062954 25 62 16.1 33.8 0.00 0.36 0.05 77 1016.7
20260901062222 25 110 8.0 33.8 0.00 0.36 0.05 77 1016.7
20260901061721 25 82 12.9 33.8 0.00 0.36 0.05 77 1016.5
20260901061222 26 72 19.3 33.8 0.00 0.36 0.05 76 1016.5
20260901060722 26 62 8.0 41.8 0.00 0.36 0.05 76 1016.9
20260901060223 26 127 12.9 41.8 0.00 0.36 0.05 76 1016.8
20260901055722 26 151 12.9 30.6 0.00 0.36 0.05 76 1016.6
20260901055222 26 100 11.3 32.2 0.00 0.36 0.05 76 1016.5
20260901054727 26 113 12.9 33.8 0.00 0.36 0.05 75 1016.5
20260901054722 26 85 20.9 27.4 0.00 0.36 0.05 75 1016.8
20260901053722 26 92 12.9 33.8 0.00 0.36 0.05 74 1016.4
20260901053453 26 98 12.9 30.6 0.00 0.36 0.05 74 1016.1
20260901052722 26 82 14.5 30.6 0.00 0.36 0.05 77 1016.3
20260901052221 26 126 17.7 30.6 0.00 0.36 0.05 77 1016.2
20260901051722 26 113 17.7 32.2 0.00 0.36 0.05 76 1016.1
20260901051223 26 86 12.9 33.8 0.00 0.36 0.05 76 1015.9
20260901050721 26 75 17.7 33.8 0.00 0.36 0.05 76 1016.2
20260901050222 26 87 12.9 38.6 0.00 0.38 0.05 77 1016.1
20260901045722 26 85 12.9 33.8 0.00 0.41 0.05 76 1016.1
20260901045222 26 120 12.9 33.8 0.00 0.41 0.05 76 1015.7
20260901044721 26 107 20.9 33.8 0.00 0.41 0.05 77 1015.8
20260901044222 26 82 16.1 37.0 0.00 0.41 0.05 77 1015.8
20260901043721 26 58 19.3 37.0 0.00 0.41 0.05 76 1015.8
20260901043221 26 86 17.7 30.6 0.00 0.41 0.05 77 1015.8
20260901042722 26 102 12.9 25.7 0.00 0.41 0.05 76 1015.7
20260901042221 26 100 17.7 27.4 0.00 0.41 0.05 75 1015.7
20260901041721 26 101 12.9 30.6 0.00 0.41 0.05 76 1015.9
20260901041222 26 64 17.7 33.8 0.00 0.41 0.05 76 1015.8
20260901040721 26 86 11.3 33.8 0.00 0.41 0.05 75 1015.7
20260901040221 26 94 8.0 30.6 0.00 0.41 0.05 74 1015.9
20260901035721 26 100 9.7 30.6 0.00 0.41 0.05 73 1015.6
20260901035454 26 72 9.7 30.6 0.00 0.41 0.05 73 1015.6
20260901034721 26 74 14.5 30.6 0.00 0.41 0.05 75 1015.5
20260901034221 26 101 16.1 30.6 0.00 0.43 0.05 75 1015.5
20260901033722 26 133 9.7 30.6 0.00 0.43 0.05 74 1015.6
20260901033222 26 123 8.0 30.6 0.00 0.43 0.05 74 1015.5
20260901032954 26 73 19.3 30.6 0.00 0.43 0.05 74 1015.4
20260901032224 27 61 11.3 30.6 0.00 0.43 0.05 73 1015.5
20260901031722 27 72 12.9 27.4 0.00 0.43 0.05 73 1015.5
20260901031453 27 101 12.9 27.4 0.00 0.43 0.05 72 1015.2
20260901030721 27 113 19.3 32.2 0.00 0.43 0.05 73 1015.5
20260901030221 26 111 19.3 27.4 0.00 0.43 0.05 72 1015.4
20260901025723 27 116 9.7 25.7 0.00 0.43 0.05 73 1015.4
20260901025222 27 73 9.7 30.6 0.00 0.43 0.05 73 1015.3
20260901024728 27 73 6.4 27.4 0.00 0.43 0.05 73 1015.1
20260901024722 27 126 4.8 30.6 0.00 0.43 0.05 74 1015.0
20260901023959 27 103 12.9 27.4 0.00 0.43 0.05 70 1015.5
20260901023722 27 108 8.0 27.4 0.00 0.43 0.05 71 1015.4
20260901022721 27 89 14.5 27.4 0.00 0.43 0.05 71 1015.4
20260901022222 27 82 9.7 27.4 0.00 0.43 0.05 72 1015.5
20260901021723 27 117 9.7 32.2 0.00 0.43 0.05 71 1015.3
20260901021221 27 50 11.3 33.8 0.00 0.43 0.05 71 1015.2
20260901020721 27 66 14.5 33.8 0.00 0.43 0.05 72 1015.5
20260901020453 27 59 14.5 32.2 0.00 0.43 0.05 71 1015.1
20260901015721 27 110 17.7 37.0 0.00 0.43 0.05 72 1015.1
20260901015221 27 74 12.9 37.0 0.00 0.43 0.05 72 1015.4
20260901014721 28 92 19.3 32.2 0.00 0.43 0.05 71 1015.0
20260901014231 28 57 9.7 30.6 0.00 0.43 0.05 71 1015.3
20260901014222 28 78 17.7 32.2 0.00 0.43 0.05 69 1015.3
20260901013221 28 84 16.1 32.2 0.00 0.43 0.05 71 1015.2
20260901012718 28 75 19.3 32.2 0.00 0.43 0.05 71 1015.4
20260901012219 27 74 9.7 24.1 0.00 0.43 0.05 72 1015.4
20260901011716 28 110 9.7 27.4 0.00 0.43 0.05 73 1015.4
20260901011216 28 100 9.7 33.8 0.00 0.43 0.05 73 1015.5
20260901010716 27 80 9.7 33.8 0.00 0.43 0.05 74 1015.3
20260901010215 27 62 19.3 37.0 0.00 0.43 0.05 72 1015.5
20260901005721 28 74 24.1 32.2 0.00 0.43 0.05 71 1015.6
20260901005715 27 88 14.5 37.0 0.00 0.43 0.05 72 1015.7
20260901004715 28 35 16.1 32.2 0.00 0.43 0.05 73 1015.6
20260901004446 28 67 14.5 30.6 0.00 0.43 0.05 72 1015.7
20260901003716 28 128 12.9 32.2 0.00 0.43 0.05 74 1015.4
20260901003222 28 42 9.7 32.2 0.00 0.43 0.05 72 1015.4
20260901003216 28 92 17.7 32.2 0.00 0.43 0.05 72 1015.3
20260901002447 28 81 19.3 37.0 0.00 0.43 0.05 71 1015.5
20260901001716 28 65 20.9 37.0 0.00 0.43 0.05 70 1015.6
20260901001217 28 64 12.9 37.0 0.00 0.43 0.05 71 1015.7
20260901000716 28 50 19.3 38.6 0.00 0.43 0.05 71 1015.9
20260901000215 28 64 22.5 38.6 0.00 0.43 0.05 71 1015.8
20260831235715 28 84 12.9 38.6 0.00 0.43 0.05 72 1015.9
20260831235215 28 59 17.7 32.2 0.00 0.43 0.05 71 1015.8
20260831234715 28 77 14.5 33.8 0.00 0.43 0.05 70 1016.1
20260831234216 28 50 20.9 33.8 0.00 0.43 0.05 71 1016.1
20260831233715 28 68 16.1 30.6 0.00 0.43 0.05 71 1016.2
20260831233216 28 75 24.1 32.2 0.00 0.43 0.05 70 1016.1
20260831232716 28 56 17.7 33.8 0.00 0.43 0.05 70 1016.3
20260831232216 28 41 19.3 33.8 0.00 0.43 0.05 70 1016.3
20260831231716 28 101 0.0 32.2 0.00 0.43 0.05 71 1016.4
20260831231216 28 90 22.5 33.8 0.00 0.43 0.05 71 1016.6
20260831230717 28 89 17.7 33.8 0.00 0.43 0.05 74 1016.7
20260831230215 28 98 11.3 37.0 0.00 0.43 0.05 71 1017.0
20260831225715 28 115 9.7 37.0 0.00 0.43 0.05 69 1016.8
20260831225215 28 90 9.7 30.6 0.00 0.43 0.05 70 1016.7
20260831224716 28 105 19.3 30.6 0.00 0.43 0.05 70 1016.9
20260831224215 28 75 17.7 37.0 0.00 0.43 0.05 71 1016.8
20260831223946 28 97 19.3 37.0 0.00 0.43 0.05 71 1017.1
20260831223215 28 114 12.9 27.4 0.00 0.43 0.05 70 1017.2
20260831222947 28 113 11.3 27.4 0.00 0.43 0.05 72 1017.1
20260831222215 28 110 12.9 32.2 0.00 0.43 0.05 70 1017.4
20260831221715 28 98 11.3 32.2 0.00 0.43 0.05 70 1017.2
20260831221215 28 73 16.1 27.4 0.00 0.43 0.05 71 1017.3
20260831220946 28 64 11.3 27.4 0.00 0.43 0.05 71 1017.3
20260831220215 28 88 16.1 30.6 0.00 0.43 0.05 71 1017.4
20260831215716 28 78 17.7 32.2 0.00 0.43 0.05 70 1017.3
20260831215216 28 82 9.7 32.2 0.00 0.43 0.05 71 1017.3
20260831214715 28 99 12.9 27.4 0.00 0.43 0.05 71 1017.5
20260831214216 28 87 9.7 27.4 0.00 0.43 0.05 71 1017.4
20260831213716 28 94 8.0 27.4 0.00 0.43 0.05 72 1017.6
20260831213216 28 69 9.7 32.2 0.00 0.43 0.05 71 1017.5
20260831212716 28 144 3.2 32.2 0.00 0.43 0.05 71 1017.7
20260831212447 28 132 12.9 32.2 0.00 0.43 0.05 71 1017.6
20260831211715 28 70 8.0 32.2 0.00 0.43 0.05 73 1017.8
20260831211215 28 102 9.7 33.8 0.00 0.43 0.05 72 1017.7
20260831210715 28 123 1.6 33.8 0.00 0.43 0.05 71 1017.8
20260831210215 28 91 16.1 30.6 0.00 0.43 0.05 71 1017.6
20260831205715 28 82 17.7 30.6 0.00 0.43 0.05 72 1017.5
20260831205447 28 91 17.7 30.6 0.00 0.43 0.05 72 1017.7
20260831204703 28 116 19.3 30.6 0.00 0.43 0.05 70 1017.5
20260831204203 27 105 19.3 27.4 0.00 0.43 0.05 71 1017.8
20260831203703 27 59 14.5 33.8 0.00 0.43 0.05 73 1017.8
20260831203204 27 128 16.1 33.8 0.00 0.43 0.05 71 1017.8
20260831202703 27 66 22.5 38.6 0.00 0.43 0.05 71 1017.9
20260831202203 27 100 9.7 38.6 0.00 0.43 0.05 74 1017.7
20260831201703 27 64 14.5 30.6 0.00 0.43 0.05 73 1017.7
20260831201204 27 118 14.5 38.6 0.00 0.43 0.05 73 1017.7
20260831200935 27 93 22.5 38.6 0.00 0.43 0.05 71 1017.5
20260831200436 27 120 20.9 37.0 0.00 0.43 0.05 72 1017.7
20260831195704 27 67 9.7 32.2 0.00 0.43 0.05 73 1017.5
20260831195204 27 83 17.7 33.8 0.00 0.43 0.05 72 1017.6
20260831194934 27 90 8.0 38.6 0.00 0.43 0.05 72 1017.6
20260831194204 27 76 24.1 33.8 0.00 0.43 0.05 73 1017.6
20260831193703 27 61 14.5 27.4 0.00 0.43 0.05 73 1017.4
20260831193205 27 94 11.3 30.6 0.00 0.43 0.05 75 1017.7
20260831192703 27 92 17.7 33.8 0.00 0.43 0.05 74 1017.7
20260831192203 27 138 12.9 33.8 0.00 0.43 0.05 74 1017.6
20260831191704 27 64 17.7 37.0 0.00 0.43 0.05 74 1017.5
20260831191204 27 76 6.4 37.0 0.00 0.43 0.05 75 1017.6
20260831190704 27 93 0.0 32.2 0.00 0.43 0.05 75 1017.8
20260831190203 27 101 8.0 32.2 0.00 0.43 0.05 76 1017.6
20260831185703 27 76 16.1 30.6 0.00 0.43 0.05 76 1017.5
20260831185203 27 90 12.9 30.6 0.00 0.43 0.05 75 1017.6
20260831184704 27 77 17.7 38.6 0.00 0.43 0.05 75 1017.6
20260831184204 26 72 8.0 38.6 0.00 0.43 0.05 75 1017.3
20260831183703 26 105 12.9 32.2 0.00 0.43 0.05 74 1017.5
20260831183311 26 96 12.9 37.0 0.00 0.43 0.05 75 1017.2
20260831183203 26 135 9.7 30.6 0.00 0.43 0.05 75 1017.5
20260831182935 26 88 17.7 32.2 0.00 0.43 0.05 74 1017.3
20260831181709 26 109 0.0 27.4 0.00 0.43 0.05 77 1017.1
20260831181703 26 55 17.7 37.0 0.00 0.43 0.05 75 1017.4
20260831180703 26 93 12.9 27.4 0.00 0.43 0.05 76 1017.4
20260831180203 26 61 0.0 27.4 0.00 0.43 0.05 76 1017.1
20260831175703 26 103 12.9 27.4 0.00 0.43 0.05 75 1017.2
20260831175203 26 46 9.7 30.6 0.00 0.43 0.05 76 1017.2
20260831174935 26 110 1.6 30.6 0.00 0.43 0.05 77 1017.2
20260831174204 26 52 14.5 30.6 0.00 0.43 0.05 77 1017.2
20260831173704 26 103 11.3 30.6 0.00 0.43 0.05 78 1017.1
20260831173153 26 101 22.5 30.6 0.00 0.43 0.05 78 1016.9
20260831172652 26 84 9.7 27.4 0.00 0.43 0.05 77 1016.9
20260831172152 26 92 0.0 33.8 0.00 0.43 0.05 77 1016.7
20260831171651 26 67 8.0 33.8 0.00 0.43 0.05 76 1017.0
20260831171152 26 96 12.9 33.8 0.00 0.43 0.05 77 1016.7
20260831170652 25 89 17.7 33.8 0.00 0.43 0.05 76 1016.5
20260831170424 25 123 16.1 30.6 0.00 0.43 0.05 76 1016.6
20260831165651 26 89 17.7 30.6 0.00 0.43 0.05 76 1016.6
20260831165139 26 88 14.5 33.8 0.00 0.43 0.05 77 1016.5
20260831164639 25 138 14.5 37.0 0.00 0.43 0.05 77 1016.6
20260831164140 25 75 17.7 37.0 0.00 0.43 0.05 78 1016.6
20260831163640 25 34 14.5 30.6 0.00 0.43 0.05 77 1016.5
20260831163140 25 107 12.9 30.6 0.00 0.43 0.05 78 1016.4
20260831162640 25 105 12.9 33.8 0.00 0.43 0.05 77 1016.5
20260831162359 25 122 14.5 33.8 0.00 0.43 0.05 77 1016.4
20260831161627 25 76 20.9 27.4 0.00 0.43 0.05 78 1016.4
20260831161116 25 66 12.9 38.6 0.00 0.43 0.05 78 1015.9
20260831160615 25 72 17.7 38.6 0.00 0.43 0.05 78 1016.3
20260831160117 25 114 9.7 38.6 0.00 0.43 0.05 76 1016.1
20260831155615 25 125 12.9 33.8 0.00 0.43 0.05 77 1016.1
20260831155115 25 83 16.1 38.6 0.00 0.43 0.05 78 1016.1
20260831154616 25 107 8.0 38.6 0.00 0.43 0.05 78 1016.0
20260831154123 25 63 12.9 32.2 0.00 0.43 0.05 79 1016.3
20260831154117 25 99 14.5 27.4 0.00 0.43 0.05 77 1016.1
20260831153115 25 86 11.3 32.2 0.00 0.43 0.05 78 1016.1
20260831152615 25 142 12.9 32.2 0.00 0.43 0.05 78 1016.4
20260831152116 25 89 14.5 37.0 0.00 0.43 0.05 78 1016.4
20260831151615 25 146 8.0 37.0 0.00 0.43 0.05 79 1016.2
20260831151353 25 125 12.9 33.8 0.00 0.43 0.05 78 1016.1
20260831151115 25 97 17.7 33.8 0.00 0.43 0.05 78 1016.1
20260831150115 25 85 20.9 33.8 0.00 0.43 0.05 78 1016.2
20260831145615 25 72 16.1 38.6 0.00 0.43 0.05 79 1016.1
20260831145115 25 85 14.5 38.6 0.00 0.43 0.05 79 1015.9
20260831144616 25 91 14.5 33.8 0.00 0.43 0.05 79 1015.8
20260831144116 25 80 17.7 33.8 0.00 0.43 0.05 80 1015.9